Location: Beaver Brook Station
(42.3793°N, 71.2203°W)
Time: 01:47:34
(UTC+00:00)

MOS 1 Rocket - Pass Details

Date: 29 October 2020
Orbit: 615 x 829 km, 97.4° (Epoch: 05 December)

Event Time Altitude Azimuth Distance (km) Brightness Sun altitude
Rises 23:01:04 0° 20° (NNE) 3,069 6.4 -15.2°
Reaches altitude 10° 23:03:25 10° 29° (NNE) 2,182 5.5 -15.7°
Maximum altitude 23:07:54 38° 97° (E) 1,113 3.8 -16.5°
Drops below altitude 10° 23:12:35 10° 165° (SSE) 2,294 5.8 -17.4°
Sets 23:15:06 0° 173° (S) 3,249 6.7 -17.8°
